| time (UTC) | temp F | wind direction | speed MPH | gust MPH | rain 1hr in | rain 24hr in | rain mn in | humidity % | barometer mb |
| 20260509053111 | 44 | 63 | 0.0 | 0.0 | 0.00 | 0.00 | 0.00 | 94 | 1018.1 |
| 20260509052111 | 44 | 63 | 0.0 | 0.0 | 0.00 | 0.00 | 0.00 | 94 | 1018.1 |
| 20260509050111 | 43 | 63 | 0.0 | 0.0 | 0.00 | 0.00 | 0.00 | 94 | 1018.0 |
| 20260509045111 | 43 | 63 | 0.0 | 0.0 | 0.00 | 0.00 | 0.00 | 94 | 1018.0 |
| 20260509043111 | 43 | 63 | 0.0 | 0.0 | 0.00 | 0.00 | 0.00 | 94 | 1017.5 |
| 20260509040111 | 42 | 63 | 0.0 | 0.0 | 0.00 | 0.00 | 0.00 | 94 | 1017.5 |
| 20260509034110 | 42 | 63 | 0.0 | 0.0 | 0.00 | 0.00 | 0.00 | 94 | 1017.6 |
| 20260509032110 | 42 | 63 | 0.0 | 0.0 | 0.00 | 0.00 | 0.00 | 94 | 1017.6 |
| 20260509031110 | 42 | 63 | 0.0 | 0.0 | 0.00 | 0.00 | 0.00 | 94 | 1017.8 |
| 20260509030110 | 42 | 63 | 0.0 | 0.0 | 0.00 | 0.00 | 0.00 | 94 | 1017.7 |
| 20260509024110 | 42 | 63 | 0.0 | 0.0 | 0.00 | 0.00 | 0.00 | 94 | 1017.7 |
| 20260509023110 | 42 | 63 | 0.0 | 0.0 | 0.00 | 0.00 | 0.00 | 93 | 1017.7 |
| 20260509022110 | 42 | 63 | 0.0 | 0.0 | 0.00 | 0.00 | 0.00 | 93 | 1017.6 |
| 20260509021110 | 43 | 63 | 0.0 | 0.0 | 0.00 | 0.00 | 0.00 | 93 | 1017.7 |
| 20260509020110 | 43 | 63 | 0.0 | 0.0 | 0.00 | 0.00 | 0.00 | 94 | 1017.7 |
| 20260509005110 | 42 | 63 | 0.0 | 0.0 | 0.00 | 0.00 | 0.00 | 93 | 1017.6 |
| 20260509003110 | 42 | 63 | 0.0 | 0.0 | 0.00 | 0.00 | 0.00 | 93 | 1017.5 |
| 20260509001110 | 42 | 63 | 0.0 | 0.0 | 0.00 | 0.00 | 0.00 | 93 | 1017.7 |
| 20260509000110 | 42 | 63 | 0.0 | 0.0 | 0.00 | 0.00 | 0.00 | 93 | 1017.8 |
| 20260508235110 | 42 | 63 | 0.0 | 0.0 | 0.00 | 0.00 | 0.00 | 93 | 1017.7 |
| 20260508233110 | 42 | 63 | 0.0 | 0.0 | 0.00 | 0.00 | 0.00 | 93 | 1017.7 |
| 20260508232110 | 42 | 63 | 0.0 | 0.0 | 0.00 | 0.00 | 0.00 | 93 | 1017.7 |
| 20260508230109 | 42 | 63 | 0.0 | 0.0 | 0.00 | 0.00 | 0.00 | 93 | 1017.7 |
| 20260508222109 | 42 | 63 | 0.0 | 0.0 | 0.00 | 0.00 | 0.00 | 92 | 1017.8 |
| 20260508220109 | 42 | 63 | 0.0 | 0.0 | 0.00 | 0.00 | 0.00 | 92 | 1017.8 |
| 20260508214113 | 42 | 63 | 0.0 | 0.0 | 0.00 | 0.00 | 0.00 | 91 | 1017.7 |
| 20260508213113 | 42 | 63 | 0.0 | 0.0 | 0.00 | 0.00 | 0.00 | 91 | 1017.7 |
| 20260508212113 | 42 | 63 | 0.0 | 0.0 | 0.00 | 0.00 | 0.00 | 91 | 1017.7 |
| 20260508203112 | 42 | 63 | 0.0 | 0.0 | 0.00 | 0.00 | 0.00 | 90 | 1017.4 |
| 20260508202112 | 42 | 63 | 0.0 | 0.0 | 0.00 | 0.00 | 0.00 | 90 | 1017.3 |
| 20260508200112 | 43 | 63 | 0.0 | 0.0 | 0.00 | 0.00 | 0.00 | 89 | 1017.2 |
| 20260508194112 | 44 | 63 | 0.0 | 0.0 | 0.00 | 0.00 | 0.00 | 89 | 1017.3 |
| 20260508190112 | 45 | 63 | 0.0 | 4.0 | 0.00 | 0.00 | 0.00 | 88 | 1017.0 |
| 20260508184112 | 46 | 63 | 0.0 | 4.0 | 0.00 | 0.00 | 0.00 | 87 | 1016.9 |
| 20260508183112 | 46 | 58 | 1.0 | 5.0 | 0.00 | 0.00 | 0.00 | 87 | 1016.7 |
| 20260508180111 | 47 | 32 | 1.0 | 6.0 | 0.00 | 0.00 | 0.00 | 86 | 1016.7 |
| 20260508175111 | 48 | 30 | 0.0 | 4.0 | 0.00 | 0.00 | 0.00 | 85 | 1016.6 |
| 20260508174111 | 48 | 26 | 2.0 | 7.0 | 0.00 | 0.00 | 0.00 | 85 | 1016.4 |
| 20260508172111 | 49 | 18 | 1.0 | 6.0 | 0.00 | 0.00 | 0.00 | 84 | 1016.4 |
| 20260508171111 | 49 | 274 | 1.0 | 6.0 | 0.00 | 0.00 | 0.00 | 84 | 1016.3 |
| 20260508165111 | 49 | 274 | 1.0 | 6.0 | 0.00 | 0.01 | 0.00 | 86 | 1016.3 |
| 20260508164111 | 48 | 273 | 0.0 | 6.0 | 0.00 | 0.01 | 0.00 | 86 | 1016.4 |
| 20260508163111 | 48 | 271 | 0.0 | 2.0 | 0.00 | 0.01 | 0.00 | 86 | 1016.4 |
| 20260508153110 | 49 | 269 | 0.0 | 0.0 | 0.00 | 0.01 | 0.00 | 87 | 1016.4 |
| 20260508151110 | 50 | 269 | 0.0 | 0.0 | 0.00 | 0.01 | 0.00 | 87 | 1016.5 |
| 20260508145110 | 50 | 269 | 1.0 | 5.0 | 0.00 | 0.01 | 0.00 | 87 | 1016.7 |
| 20260508144110 | 51 | 269 | 2.0 | 6.0 | 0.00 | 0.01 | 0.00 | 87 | 1016.7 |
| 20260508142110 | 50 | 269 | 1.0 | 5.0 | 0.00 | 0.01 | 0.00 | 87 | 1016.4 |
| 20260508135110 | 51 | 269 | 0.0 | 0.0 | 0.00 | 0.01 | 0.00 | 87 | 1016.5 |
| 20260508134110 | 51 | 269 | 0.0 | 0.0 | 0.00 | 0.01 | 0.00 | 87 | 1016.4 |
| 20260508132110 | 50 | 271 | 0.0 | 1.0 | 0.00 | 0.01 | 0.00 | 88 | 1016.3 |
| 20260508131110 | 50 | 271 | 1.0 | 6.0 | 0.00 | 0.01 | 0.00 | 87 | 1016.4 |
| 20260508124109 | 50 | 266 | 0.0 | 0.0 | 0.00 | 0.01 | 0.00 | 87 | 1016.3 |
| 20260508123109 | 49 | 266 | 0.0 | 0.0 | 0.00 | 0.01 | 0.00 | 88 | 1016.2 |
| 20260508121109 | 49 | 266 | 0.0 | 2.0 | 0.00 | 0.01 | 0.00 | 88 | 1016.2 |
| 20260508120109 | 49 | 266 | 0.0 | 4.0 | 0.00 | 0.01 | 0.00 | 89 | 1016.2 |
| 20260508114109 | 49 | 266 | 0.0 | 0.0 | 0.00 | 0.01 | 0.00 | 89 | 1016.3 |
| 20260508113109 | 49 | 266 | 0.0 | 2.0 | 0.00 | 0.01 | 0.00 | 89 | 1016.2 |
| 20260508111114 | 48 | 266 | 0.0 | 0.0 | 0.00 | 0.01 | 0.00 | 89 | 1016.1 |
| 20260508101113 | 49 | 266 | 0.0 | 2.0 | 0.00 | 0.08 | 0.00 | 89 | 1016.2 |
| 20260508095113 | 48 | 266 | 0.0 | 0.0 | 0.00 | 0.08 | 0.00 | 89 | 1016.0 |
| 20260508094113 | 48 | 266 | 0.0 | 2.0 | 0.00 | 0.08 | 0.00 | 89 | 1016.0 |
| 20260508092113 | 47 | 266 | 1.0 | 4.0 | 0.00 | 0.08 | 0.00 | 91 | 1015.8 |
| 20260508091113 | 47 | 265 | 0.0 | 0.0 | 0.00 | 0.08 | 0.00 | 92 | 1015.8 |
| 20260508090113 | 47 | 265 | 0.0 | 1.0 | 0.00 | 0.08 | 0.00 | 93 | 1015.7 |
| 20260508085113 | 46 | 265 | 0.0 | 0.0 | 0.00 | 0.08 | 0.00 | 92 | 1015.7 |
| 20260508083113 | 46 | 265 | 0.0 | 2.0 | 0.00 | 0.08 | 0.00 | 92 | 1015.5 |
| 20260508081112 | 46 | 265 | 0.0 | 0.0 | 0.00 | 0.08 | 0.00 | 93 | 1015.4 |
| 20260508080112 | 46 | 265 | 0.0 | 0.0 | 0.00 | 0.08 | 0.00 | 93 | 1015.6 |
| 20260508075112 | 46 | 265 | 0.0 | 2.0 | 0.00 | 0.08 | 0.00 | 93 | 1015.3 |
| 20260508073112 | 46 | 265 | 0.0 | 2.0 | 0.00 | 0.08 | 0.00 | 93 | 1015.3 |
| 20260508070112 | 45 | 265 | 0.0 | 4.0 | 0.00 | 0.08 | 0.00 | 93 | 1015.1 |
| 20260508065112 | 45 | 265 | 0.0 | 0.0 | 0.00 | 0.23 | 0.00 | 94 | 1014.9 |
| 20260508064112 | 45 | 265 | 0.0 | 2.0 | 0.00 | 0.23 | 0.00 | 94 | 1014.7 |
| 20260508061112 | 45 | 265 | 0.0 | 0.0 | 0.00 | 0.23 | 0.00 | 94 | 1014.6 |
| 20260508054112 | 45 | 265 | 0.0 | 0.0 | 0.00 | 0.23 | 0.00 | 94 | 1014.4 |